Showing default

GOSAT-GW, 64694

Orbit data source: Space-Track

GOSAT-GW, 64694 is a payload satellite owned by JAXA (JP) in SSO that was launched on Sat, 28 Jun 2025 UTC via an H-IIA 202 launch vehicle from the Tanegashima Space Center (TNSTA). Payload-class satellites include a variety of spacecraft equipped with specific instruments for various scientific and technological missions. These include communications satellites like Starlink; space stations such as the ISS; scientific satellites like the Hubble; Earth observation satellites from companies like Planet Labs, Umbra, and HawkEye 360; GPS; miniature CubeSats for education and research; and military/defense satellites.

Loading next visibility...
Identifier
64694, 2025-141A
Orbit
SSO
Country
Flag of JPJP / JPN
Related business
Manufacturer
MELCO
Mission
Operational Civil Earth Obs Sci
Bus & Motor
GOSAT, AOCS
Mass
2,900 kg wet, ~2,900 kg dry
Launch date (UTC)
2025-06-28 (1 year ago)
Launch vehicle
H-IIA 202
Launch site
Tanegashima Space Center (TNSTA)
Object type
Payload
Rocket body
Debris
Shape & HBR
Box + 2 Pan, 12.0 m
Radar Cross Section
21.792 m², Large (>1 m²)

Expand to show TLE details & history
Last TLE update: 8 hours ago

TLE from 8 hours ago
0 GOSAT-GW
1 64694U 25141A   26171.53104157  .00000361  00000-0  72097-4 0  9994
2 64694  98.0572 108.7937 0001457  82.6856 277.4514 14.67554497 52334
Epoch: 2026-06-20T12:44Z
TLE epoch observation values (Epoch: 2026-06-20T12:44:41.991Z)
Latitude
-0.00005°
Longitude
8.87441°
Altitude
671.753 km
Speed
7.521 km/s
True Right ascension
07h 15m 10s
True Declination
0° 00' 00"
Sunlit
Object was in daylight at epoch
Visualization orbit readout
Latitude
Unknown
Longitude
Unknown
Altitude
Unknown
Speed
Unknown
Apparent Right ascension
Unknown
Apparent Declination
Unknown
Sunlit
N/A
Visualization observer readout
Local Sidereal Time
07:21:02
Azimuth
Unknown
Elevation
Unknown
Doppler factor
Unknown
Orbital elements
Apogee altitude
666.977 km
Perigee altitude
664.924 km
Semi-major axis
7,044.087 km
Eccentricity
0.00015
Inclination
98.0572°
RAAN
108.7937°
Arg. of periapsis
82.6856°
True anomaly
277.43484°
Mean anomaly
277.4514°
Eccentric anomaly
277.44312°
Mean motion
3.67118 °/min
Orbital period
98.06 mins
BSTAR
0.000072097
Loading maneuver chart data...
Computing Atmospheric mass density...
Loading historical data...
Loading historical data...
Loading historical data...
Loading historical data...
Loading historical data...
Loading historical data...
Loading historical data...
Other satellites on launch #141 in the year 2025 (2025-06-28 UTC)

Documentation

Showing up to 5 results
|